Reno - Stead, NV

10:46 PM PDT on June 24, 2017 (GMT -0700)
Reno - Stead

Weather History for KRTS - June, 2013

Change the Weather History Date:

Wednesday, June 19, 2013

  Actual Average (KRNO) Record (KRNO)
Temperature  
Mean Temperature 52 °F -  
Max Temperature 66 °F 85 °F 103 °F (2017)
Min Temperature 39 °F 47 °F 33 °F (1978)
Degree Days  
Heating Degree Days 12    
Growing Degree Days 2 (Base 50)    
Moisture  
Dew Point 25 °F    
Average Humidity 36    
Maximum Humidity 56    
Minimum Humidity 16    
Precipitation  
Precipitation 0.00 in - - ()
Sea Level Pressure  
Sea Level Pressure 30.03 in    
Wind  
Wind Speed 12 mph (WNW)    
Max Wind Speed 21 mph    
Max Gust Speed 30 mph    
Visibility 10 miles    
Events      
Averages and records for this station are not official NWS values.
T = Trace of Precipitation, MM = Missing Value Source: NWS Daily Summary

Daily Weather History Graph

Daily Weather History Graph

Search for Another Location

Airport or City:

Trip Planner

Search our weather history database for the weather conditions in past years. The results will help you decide how hot, cold, wet, or windy it might be!

Date:

Astronomy

Jun. 19, 2013 Rise Set
Actual Time 5:31 AM PDT 8:30 PM PDT
Civil Twilight 4:58 AM PDT 9:03 PM PDT
Nautical Twilight 4:17 AM PDT 9:44 PM PDT
Astronomical Twilight 3:29 AM PDT 10:32 PM PDT
Moon 4:29 PM PDT (6/19) 2:18 AM PDT (6/19)
Length of Visible Light 16h 04m
Length of Day
14h 58m
Waxing Gibbous, 81% of the Moon is Illuminated
Jun 19
Waxing Gibbous
Jun 23
Full
Jun 29
Last Quarter
Jul 8
New
Jul 15
First Quarter

Hourly Weather History & Observations

Time (PDT) Temp. Windchill Dew Point Humidity Pressure Visibility Wind Dir Wind Speed Gust Speed Precip Events Conditions
12:15 AM 48.2 °F - 24.8 °F 40% 29.97 in 10.0 mi WNW 13.8 mph 20.7 mph N/A   Clear
12:35 AM 46.4 °F 42.9 °F 24.8 °F 43% 29.97 in 10.0 mi North 6.9 mph - N/A   Clear
12:55 AM 46.4 °F 41.9 °F 24.8 °F 43% 29.97 in 10.0 mi West 9.2 mph - N/A   Clear
1:15 AM 44.6 °F 40.7 °F 24.8 °F 46% 29.97 in 10.0 mi NNE 6.9 mph - N/A   Clear
1:35 AM 46.4 °F 45.2 °F 23.0 °F 40% 29.97 in 10.0 mi WSW 3.5 mph - N/A   Clear
1:55 AM 46.4 °F 43.5 °F 23.0 °F 40% 29.97 in 10.0 mi West 5.8 mph - N/A   Clear
2:15 AM 42.8 °F 40.1 °F 23.0 °F 46% 29.97 in 10.0 mi WNW 4.6 mph - N/A   Clear
2:35 AM 42.8 °F 40.1 °F 24.8 °F 49% 29.97 in 10.0 mi NW 4.6 mph - N/A   Clear
2:55 AM 41.0 °F 36.4 °F 24.8 °F 53% 29.97 in 10.0 mi WNW 6.9 mph - N/A   Clear
3:15 AM 39.2 °F - 24.8 °F 56% 29.98 in 10.0 mi North - - N/A   Clear
3:35 AM 39.2 °F 35.9 °F 24.8 °F 56% 29.98 in 10.0 mi NW 4.6 mph - N/A   Clear
3:55 AM 39.2 °F 35.0 °F 24.8 °F 56% 29.98 in 10.0 mi WSW 5.8 mph - N/A   Clear
4:15 AM 41.0 °F 34.3 °F 24.8 °F 53% 29.97 in 10.0 mi West 11.5 mph - N/A   Clear
4:35 AM 41.0 °F 34.3 °F 24.8 °F 53% 29.97 in 10.0 mi West 11.5 mph - N/A   Clear
4:55 AM 41.0 °F 33.9 °F 23.0 °F 49% 29.97 in 10.0 mi West 12.7 mph - N/A   Clear
5:15 AM 42.8 °F 34.5 °F 23.0 °F 46% 29.98 in 10.0 mi West 18.4 mph 23.0 mph N/A   Clear
5:35 AM 42.8 °F 34.8 °F 24.8 °F 49% 29.98 in 10.0 mi WSW 17.3 mph - N/A   Clear
5:55 AM 42.8 °F 35.1 °F 26.6 °F 53% 29.98 in 10.0 mi WSW 16.1 mph - N/A   Clear
6:15 AM 44.6 °F 38.8 °F 26.6 °F 49% 29.99 in 10.0 mi WSW 11.5 mph - N/A   Clear
6:35 AM 44.6 °F 39.2 °F 28.4 °F 53% 29.99 in 10.0 mi West 10.4 mph - N/A   Clear
6:55 AM 46.4 °F 41.1 °F 28.4 °F 50% 30.00 in 10.0 mi WNW 11.5 mph - N/A   Clear
7:15 AM 48.2 °F - 30.2 °F 50% 30.00 in 10.0 mi WNW 15.0 mph 20.7 mph N/A   Clear
7:35 AM 48.2 °F - 30.2 °F 50% 30.01 in 10.0 mi WNW 13.8 mph 20.7 mph N/A   Clear
7:55 AM 48.2 °F - 32.0 °F 54% 30.02 in 10.0 mi NW 17.3 mph 21.9 mph N/A   Clear
8:15 AM 46.4 °F 39.2 °F 30.2 °F 53% 30.02 in 10.0 mi WNW 18.4 mph 27.6 mph N/A   Partly Cloudy
8:35 AM 50.0 °F - 26.6 °F 40% 30.03 in 10.0 mi NW 19.6 mph 25.3 mph N/A   Clear
8:55 AM 50.0 °F - 28.4 °F 43% 30.04 in 10.0 mi NW 15.0 mph 25.3 mph N/A   Clear
9:15 AM 50.0 °F - 28.4 °F 43% 30.04 in 10.0 mi NNW 8.1 mph 19.6 mph N/A   Clear
9:35 AM 51.8 °F - 26.6 °F 38% 30.04 in 10.0 mi NNW 10.4 mph 18.4 mph N/A   Partly Cloudy
9:55 AM 53.6 °F - 28.4 °F 38% 30.04 in 10.0 mi NNW 13.8 mph 18.4 mph N/A   Partly Cloudy
10:15 AM 53.6 °F - 26.6 °F 35% 30.04 in 10.0 mi West 9.2 mph - N/A   Clear
10:35 AM 55.4 °F - 26.6 °F 33% 30.04 in 10.0 mi WNW 13.8 mph 20.7 mph N/A   Clear
10:55 AM 55.4 °F - 26.6 °F 33% 30.04 in 10.0 mi North 16.1 mph 21.9 mph N/A   Clear
11:15 AM 57.2 °F - 24.8 °F 29% 30.04 in 10.0 mi NW 17.3 mph 24.2 mph N/A   Clear
11:35 AM 59.0 °F - 24.8 °F 27% 30.04 in 10.0 mi WNW 15.0 mph 21.9 mph N/A   Clear
11:55 AM 59.0 °F - 24.8 °F 27% 30.04 in 10.0 mi NW 16.1 mph 21.9 mph N/A   Clear
12:15 PM 59.0 °F - 23.0 °F 25% 30.04 in 10.0 mi WNW 16.1 mph 21.9 mph N/A   Clear
12:35 PM 62.6 °F - 21.2 °F 20% 30.04 in 10.0 mi WNW 17.3 mph 23.0 mph N/A   Clear
12:55 PM 62.6 °F - 19.4 °F 19% 30.03 in 10.0 mi NNW 15.0 mph 24.2 mph N/A   Clear
1:15 PM 62.6 °F - 17.6 °F 18% 30.03 in 10.0 mi WNW 12.7 mph 27.6 mph N/A   Clear
1:35 PM 62.6 °F - 17.6 °F 18% 30.03 in 10.0 mi WNW 11.5 mph 23.0 mph N/A   Clear
1:55 PM 64.4 °F - 17.6 °F 16% 30.03 in 10.0 mi WNW 15.0 mph 28.8 mph N/A   Clear
2:15 PM 64.4 °F - 17.6 °F 16% 30.03 in 10.0 mi WNW 11.5 mph 26.5 mph N/A   Clear
2:35 PM 64.4 °F - 17.6 °F 16% 30.03 in 10.0 mi WNW 13.8 mph 29.9 mph N/A   Clear
2:55 PM 64.4 °F - 17.6 °F 16% 30.02 in 10.0 mi WNW 12.7 mph 23.0 mph N/A   Clear
3:15 PM 64.4 °F - 19.4 °F 18% 30.02 in 10.0 mi NNW 13.8 mph 23.0 mph N/A   Clear
3:35 PM 64.4 °F - 19.4 °F 18% 30.02 in 10.0 mi WNW 20.7 mph 26.5 mph N/A   Clear
3:55 PM 66.2 °F - 19.4 °F 17% 30.02 in 10.0 mi WNW 16.1 mph 29.9 mph N/A   Clear
4:15 PM 66.2 °F - 19.4 °F 17% 30.02 in 10.0 mi WNW 17.3 mph 24.2 mph N/A   Clear
4:35 PM 64.4 °F - 19.4 °F 18% 30.02 in 10.0 mi NW 15.0 mph 27.6 mph N/A   Clear
4:55 PM 64.4 °F - 19.4 °F 18% 30.03 in 10.0 mi WNW 18.4 mph 25.3 mph N/A   Clear
5:15 PM 64.4 °F - 21.2 °F 19% 30.03 in 10.0 mi WNW 17.3 mph 25.3 mph N/A   Clear
5:35 PM 64.4 °F - 23.0 °F 21% 30.03 in 10.0 mi WNW 18.4 mph 27.6 mph N/A   Clear
5:55 PM 64.4 °F - 23.0 °F 21% 30.04 in 10.0 mi WNW 16.1 mph 24.2 mph N/A   Clear
6:15 PM 64.4 °F - 23.0 °F 21% 30.04 in 10.0 mi West 13.8 mph 23.0 mph N/A   Clear
6:35 PM 62.6 °F - 24.8 °F 24% 30.04 in 10.0 mi WNW 16.1 mph 23.0 mph N/A   Clear
6:55 PM 62.6 °F - 24.8 °F 24% 30.05 in 10.0 mi West 18.4 mph 21.9 mph N/A   Clear
7:15 PM 60.8 °F - 26.6 °F 27% 30.06 in 10.0 mi WNW 17.3 mph 21.9 mph N/A   Clear
7:35 PM 59.0 °F - 26.6 °F 29% 30.06 in 10.0 mi WNW 16.1 mph 21.9 mph N/A   Clear
7:55 PM 59.0 °F - 26.6 °F 29% 30.06 in 10.0 mi WNW 16.1 mph 20.7 mph N/A   Clear
8:15 PM 57.2 °F - 28.4 °F 33% 30.07 in 10.0 mi NW 16.1 mph - N/A   Clear
8:35 PM 55.4 °F - 28.4 °F 36% 30.08 in 10.0 mi NW 12.7 mph - N/A   Clear
8:55 PM 55.4 °F - 28.4 °F 36% 30.09 in 10.0 mi WNW 11.5 mph - N/A   Clear
9:15 PM 53.6 °F - 28.4 °F 38% 30.09 in 10.0 mi WNW 10.4 mph 19.6 mph N/A   Clear
9:35 PM 53.6 °F - 28.4 °F 38% 30.10 in 10.0 mi WNW 11.5 mph - N/A   Clear
9:55 PM 51.8 °F - 28.4 °F 41% 30.09 in 10.0 mi WNW 13.8 mph - N/A   Clear
10:15 PM 51.8 °F - 28.4 °F 41% 30.10 in 10.0 mi NW 9.2 mph - N/A   Clear
10:35 PM 50.0 °F - 28.4 °F 43% 30.10 in 10.0 mi NW 8.1 mph - N/A   Clear
10:55 PM 50.0 °F - 28.4 °F 43% 30.09 in 10.0 mi WNW 11.5 mph - N/A   Clear
11:15 PM 50.0 °F - 28.4 °F 43% 30.09 in 10.0 mi WNW 11.5 mph - N/A   Clear
11:35 PM 48.2 °F - 28.4 °F 46% 30.10 in 10.0 mi WSW 9.2 mph - N/A   Clear
11:55 PM 48.2 °F - 28.4 °F 46% 30.09 in 10.0 mi West 10.4 mph - N/A   Clear